Weather in Bolshie Viazemy

Russia / Moscow Oblast     55˚37′42″N   36˚59′39″E
temp.,
°C
wind,
m/s
gust,
m/s
humid.,
%
clouds,
%
prec.,
mm/h
press.,
hPa
HPBL,
m
17 january, sun
sun1700:00−19˚nnw4994100 0.4 1009460
03:00−21˚nnw3895100 0.4 1011374
06:00−24˚nnw389799 0.1 1012224
09:00−26˚nnw369898 0.1 1014130
12:00−22˚n369569 0.0 1016256
15:00−20˚nnw239683 0.0 1017207
18:00−23˚n239865 0.0 101832
21:00−24˚n129841 0.0 102020
18 january, mon
mon1800:00−24˚n12980 0.0 102020
03:00−24˚nw019913 0.0 102020
06:00−23˚wsw119898 0.0 102020
09:00−24˚nw129869 0.0 102020
12:00−19˚wsw009430 0.0 102080
15:00−18˚w119563 0.0 101924
18:00−19˚wnw119698 0.0 101920
21:00−19˚sw119599 0.0 101920
19 january, tue
tue1900:00−19˚w1194100 0.0 101920
03:00−18˚w1192100 0.0 101920
06:00−18˚wnw1192100 0.0 101820
09:00−18˚wnw1193100 0.0 101820
12:00−15˚wnw1291100 0.0 1017166
15:00−13˚w1292100 0.0 1017234
18:00−14˚wnw1296100 0.1 101730
21:00−15˚nw1296100 0.2 101725
20 january, wed
wed2000:00−15˚nw229688 0.1 101835
03:00−18˚wnw129882 0.1 101820
06:00−18˚wnw229891 0.0 101921
09:00−18˚wnw229891 0.1 102021
12:00−14˚w229578 0.0 1020127
15:00−13˚wsw239556 0.0 1020154
18:00−16˚wsw23960 0.0 102225
21:00−17˚sw23970 0.0 102242
21 january, thu
thu2100:00−18˚ssw359610 0.0 1021103
03:00−18˚ssw399140 0.0 1021196
06:00−16˚ssw4128783 0.0 1018288
09:00−13˚ssw6139192 0.0 1015418
12:00−10˚ssw61393100 0.6 1013520
15:00−7˚sw61391100 1.0 1011601
18:00−6˚sw71490100 0.1 1010531
21:00−3˚sw71592100 0.1 1008491